Weather History for San Jose, CA

Change the Weather History Date:

Friday, November 2, 2012

  Actual Average Record
Temperature  
Mean Temperature 58 °F 60 °F  
Max Temperature 67 °F 72 °F 85 °F (1967)
Min Temperature 48 °F 49 °F 34 °F (1896)
Degree Days  
Heating Degree Days 7 5  
Month to date heating degree days 11 10  
Since 1 July heating degree days 39 92  
Cooling Degree Days 0 0  
Month to date cooling degree days 0 0  
Year to date cooling degree days 479 728  
Growing Degree Days 7 (Base 50)    
Moisture  
Dew Point 50 °F    
Average Humidity 78    
Maximum Humidity 100    
Minimum Humidity 56    
Precipitation  
Precipitation 0.00 in 0.07 in 0.35 in (2008)
Month to date precipitation 0.14 0.13  
Year to date precipitation 6.04 11.03  
Since 1 July precipitation 0.50 1.14  
Sea Level Pressure  
Sea Level Pressure 30.06 in    
Wind  
Wind Speed 3 mph (WNW)    
Max Wind Speed 9 mph    
Max Gust Speed 14 mph    
Visibility 10 miles    
Events      
T = Trace of Precipitation, MM = Missing Value Source: NWS Daily Summary

Daily Weather History Graph

Daily Weather History Graph

Search for Another Location

Airport:

Trip Planner

Search our weather history database for the weather conditions in past years. The results will help you decide how hot, cold, wet, or windy it might be!

Date:

Astronomy

Nov. 02, 2012 Rise Set
Actual Time 7:33 AM PDT 6:07 PM PDT
Civil Twilight 7:06 AM PDT 6:35 PM PDT
Nautical Twilight 6:35 AM PDT 7:05 PM PDT
Astronomical Twilight 6:05 AM PDT 7:36 PM PDT
Moon 9:02 PM PDT (11/2) 10:55 AM PDT (11/2)
Length of Visible Light 11h 28m
Length of Day
10h 34m
Waning Gibbous, 86% of the Moon is Illuminated
Nov 2
Waning Gibbous
Nov 6
Last Quarter
Nov 13
New
Nov 20
First Quarter
Nov 28
Full

Hourly Weather History & Observations

Time (PDT) Temp. Dew Point Humidity Pressure Visibility Wind Dir Wind Speed Gust Speed Precip Events Conditions
12:35 AM 53.6 °F 51.8 °F 94% 30.08 in 10.0 mi Calm Calm - N/A   Scattered Clouds
12:43 AM 53.6 °F 51.8 °F 94% 30.07 in 10.0 mi Calm Calm - N/A   Mostly Cloudy
12:53 AM 54.0 °F 53.1 °F 97% 30.07 in 10.0 mi Calm Calm - N/A   Mostly Cloudy
1:14 AM 53.6 °F 51.8 °F 94% 30.07 in 10.0 mi Calm Calm - N/A   Scattered Clouds
1:53 AM 52.0 °F 51.1 °F 97% 30.07 in 10.0 mi South 3.5 mph - N/A   Clear
2:53 AM 51.1 °F 50.0 °F 96% 30.07 in 10.0 mi Calm Calm - N/A   Clear
3:53 AM 51.1 °F 48.9 °F 92% 30.06 in 10.0 mi Calm Calm - N/A   Clear
4:53 AM 50.0 °F 48.0 °F 93% 30.06 in 10.0 mi Calm Calm - N/A   Clear
5:53 AM 48.9 °F 46.9 °F 93% 30.07 in 10.0 mi Calm Calm - N/A   Clear
6:53 AM 48.0 °F 46.9 °F 96% 30.07 in 10.0 mi Calm Calm - N/A   Clear
7:53 AM 48.9 °F 46.9 °F 93% 30.07 in 10.0 mi Calm Calm - N/A   Clear
8:53 AM 53.1 °F 48.0 °F 83% 30.09 in 10.0 mi Calm Calm - N/A   Clear
9:53 AM 55.0 °F 46.9 °F 74% 30.10 in 10.0 mi Calm Calm - N/A   Clear
10:53 AM 59.0 °F 48.9 °F 69% 30.09 in 10.0 mi Calm Calm - N/A   Clear
11:53 AM 61.0 °F 46.9 °F 60% 30.07 in 10.0 mi Calm Calm - N/A   Clear
12:53 PM 64.0 °F 48.9 °F 58% 30.06 in 10.0 mi NW 8.1 mph - N/A   Clear
1:53 PM 64.9 °F 48.9 °F 56% 30.04 in 10.0 mi NW 4.6 mph - N/A   Clear
2:53 PM 66.0 °F 50.0 °F 56% 30.04 in 10.0 mi WNW 8.1 mph - N/A   Clear
3:53 PM 64.9 °F 51.1 °F 61% 30.04 in 10.0 mi NW 9.2 mph - N/A   Clear
4:53 PM 64.0 °F 52.0 °F 65% 30.03 in 10.0 mi WNW 6.9 mph - N/A   Clear
5:53 PM 64.0 °F 48.2 °F 56% 30.03 in 10.0 mi NW 13.8 mph - N/A   Clear
6:53 PM 62.8 °F 48.9 °F 61% 30.04 in 10.0 mi NNW 5.8 mph - N/A   Clear
7:53 PM 60.1 °F 52.0 °F 75% 30.05 in 10.0 mi NW 8.1 mph - N/A   Clear
8:53 PM 57.0 °F 52.0 °F 83% 30.06 in 10.0 mi NW 4.6 mph - N/A   Clear
9:53 PM 57.0 °F 53.1 °F 87% 30.07 in 10.0 mi WNW 3.5 mph - N/A   Clear
10:53 PM 55.9 °F 51.1 °F 84% 30.08 in 10.0 mi SW 3.5 mph - N/A   Clear
11:53 PM 54.0 °F 50.0 °F 86% 30.08 in 10.0 mi Calm Calm - N/A   Clear